Wind_Speed
16 16 17 17 16 15 15 17 17 17 17 18 18 18 20 20 21 21 21 21 20 20 21 21 22 22 22 22 22 22 21 20 21 20 19 19 19 19 18 18 18 18 19 19
18 18 18 18 17 17 16 16 17 18 18 18 18 19 20 21 20 20 20 20 20 20 21 21 22 21 21 22 22 21 20 19 18 18 18 18 18 18 17 17 17 17 18 17
20 19 19 19 18 18 18 18 18 18 19 19 19 20 19 19 20 20 20 21 21 21 21 21 21 22 22 22 21 20 19 18 18 18 18 17 17 17 16 16 16 16 16 15
20 20 20 20 19 19 19 19 19 19 20 20 20 20 19 19 20 21 21 21 21 21 20 21 21 22 22 22 20 19 18 18 18 18 18 17 17 16 16 16 16 16 15 15
21 21 21 20 20 20 20 19 20 20 21 21 21 20 20 21 21 22 21 21 20 20 21 21 21 22 21 20 18 18 18 17 17 17 16 16 16 16 15 16 15 15 16 15
22 23 23 22 22 21 21 21 21 21 22 22 22 21 20 21 21 21 20 20 20 20 20 21 21 20 19 18 17 16 16 16 16 16 15 15 15 15 15 15 14 14 14 14
23 23 23 23 23 22 23 22 21 21 22 23 22 21 20 21 21 20 20 20 20 20 19 20 19 19 18 16 16 16 16 15 15 14 14 13 13 14 14 14 13 13 13 14
23 23 22 23 23 23 22 22 21 22 22 21 21 21 20 20 19 19 19 20 19 18 19 19 18 18 18 17 16 15 15 14 13 13 13 12 12 12 12 12 13 12 12 13
25 24 23 23 23 22 22 22 22 22 21 21 21 21 20 19 18 18 18 18 18 17 18 17 17 17 17 16 15 14 14 13 13 12 12 11 11 11 11 11 11 11 11 12
24 23 22 23 22 22 22 22 22 21 20 21 20 19 19 18 17 17 16 16 16 16 16 15 15 16 15 14 14 14 13 12 12 11 11 10 10 9 10 10 10 10 10 12
23 22 22 22 22 22 22 21 20 19 19 19 19 19 18 18 17 17 17 16 16 15 14 13 13 13 13 13 13 12 12 11 11 10 10 8 8 8 8 9 10 10 10 12
23 22 22 22 21 21 21 20 19 19 19 18 19 18 17 17 16 15 15 15 14 14 14 13 12 11 11 11 11 10 9 9 9 9 8 7 7 7 8 9 10 11 11 12
23 22 21 20 20 21 20 19 19 18 18 17 17 17 16 16 15 15 14 14 14 13 12 11 10 10 10 9 9 8 8 8 8 8 7 7 7 8 8 10 11 11 12 13
23 22 21 20 20 21 20 19 18 17 17 17 16 16 15 14 14 14 13 13 13 12 11 10 10 10 9 9 8 7 6 6 7 7 7 7 7 8 9 10 11 12 13 13
22 21 20 20 20 20 19 18 17 16 16 16 16 15 14 14 13 12 12 11 11 10 9 9 9 9 8 7 6 4 4 5 6 6 7 7 8 8 10 11 12 13 14 14
21 20 20 20 20 20 19 17 16 16 16 15 14 13 13 13 12 12 11 11 10 8 7 7 7 6 5 5 4 3 3 4 5 6 7 7 9 10 11 12 13 13 13 14
21 20 20 20 20 19 18 17 17 17 16 14 13 13 12 11 11 11 11 10 9 7 7 6 5 5 4 3 2 1 2 4 6 7 7 8 10 11 11 12 12 13 13 14
20 20 21 20 20 19 18 17 17 16 15 14 13 12 11 11 10 10 9 8 7 6 6 5 5 4 4 2 1 1 2 4 6 7 7 9 10 11 11 12 12 13 14 15
21 21 21 20 20 19 18 16 15 15 14 13 12 12 11 10 10 9 8 7 6 6 5 5 4 4 3 2 1 1 3 5 6 7 8 9 11 11 11 12 13 14 14 16
21 21 21 20 20 19 17 16 15 14 13 12 12 11 10 9 9 8 7 6 6 5 5 5 4 3 3 2 1 2 4 6 7 7 9 9 10 11 12 13 13 14 15 16
22 22 21 21 20 19 17 16 15 14 14 13 12 11 10 9 9 8 7 7 6 5 5 6 5 4 3 3 3 3 5 6 7 8 9 9 10 11 12 13 13 14 15 16
23 22 22 21 20 19 17 16 15 15 15 14 13 12 11 10 10 9 8 8 7 6 6 5 5 4 4 4 4 5 5 7 7 8 9 9 10 11 12 13 13 14 15 17
23 22 22 21 20 19 18 17 16 16 15 15 14 13 13 12 11 10 9 9 8 8 7 5 5 5 5 6 6 6 6 6 8 9 9 9 10 11 12 12 13 14 16 17
23 23 22 21 20 19 18 17 17 16 15 15 15 14 14 13 12 11 10 9 9 9 8 6 7 7 7 7 6 6 6 7 8 8 9 10 10 11 11 12 14 15 17 18
24 23 21 20 20 19 18 18 17 17 16 15 15 15 14 14 13 12 11 10 10 9 9 8 8 8 7 7 7 7 6 7 7 8 9 10 10 10 11 13 14 16 17 18
22 21 21 20 20 19 19 18 18 17 16 16 15 14 14 13 13 13 12 12 11 10 10 9 9 8 7 7 7 6 6 6 7 8 9 9 9 11 12 13 15 16 17 18
22 21 20 19 19 19 19 18 18 17 16 16 15 14 14 14 13 13 13 12 11 11 11 10 10 9 8 7 7 6 6 6 7 8 8 8 9 10 12 13 15 16 17 18
Wind_Direction
313 314 316 318 318 316 312 314 312 312 308 311 309 305 306 308 309 307 304 304 305 306 308 309 308 306 305 307 307 306 306 308 309 308 309 310 309 309 309 308 308 307 308 308
311 312 312 313 316 315 312 310 310 309 309 311 312 309 306 307 308 307 305 303 306 307 306 307 308 306 306 307 307 305 305 307 310 310 310 309 308 308 310 310 310 310 310 309
308 311 312 311 311 311 309 307 307 308 310 310 309 308 307 307 307 305 305 304 304 307 308 308 308 308 308 310 310 308 308 308 309 309 307 307 308 307 308 309 308 311 313 312
310 310 311 312 310 309 307 306 307 308 309 309 309 307 306 307 308 309 308 305 303 305 308 308 308 309 309 310 309 309 309 308 309 309 307 306 306 306 306 306 307 309 311 314
313 311 311 308 308 308 306 304 306 306 306 308 308 306 306 305 306 307 306 305 303 304 307 309 310 311 311 310 309 310 311 311 311 309 308 307 306 305 306 306 307 307 311 314
311 310 311 309 307 308 307 306 305 304 304 305 306 302 302 303 303 304 305 304 304 304 306 308 310 310 310 311 311 311 311 312 311 310 308 308 308 308 309 312 312 311 312 314
312 311 310 308 307 308 308 307 304 304 303 304 303 304 303 303 304 303 303 304 306 306 306 307 308 308 309 312 312 310 309 311 313 313 311 310 310 309 309 311 312 312 314 316
311 311 311 311 308 307 306 303 302 303 302 303 303 306 307 304 303 302 302 302 303 303 302 303 305 307 309 310 310 309 311 314 316 314 312 312 314 313 311 309 310 311 314 316
310 309 309 308 307 306 305 302 302 301 299 300 303 306 305 303 301 301 301 300 300 302 302 304 304 307 309 310 308 308 311 314 316 315 317 314 312 314 316 314 315 318 319 320
309 309 308 307 305 304 304 302 302 301 299 300 303 304 303 303 300 298 299 299 299 301 303 306 307 307 308 309 309 308 309 312 317 319 318 316 314 318 321 323 326 328 330 330
306 308 307 306 304 303 303 302 300 300 300 302 303 302 301 301 298 296 297 299 299 297 299 304 309 310 309 308 308 309 312 315 317 319 320 323 324 326 328 331 333 333 333 333
307 306 306 305 304 304 304 304 300 298 298 301 303 302 300 299 298 295 296 299 299 299 298 301 306 307 308 310 311 313 318 322 325 327 328 330 331 331 333 337 338 335 336 336
307 305 305 306 306 305 305 303 301 302 300 300 300 301 300 299 298 295 295 295 295 296 296 300 301 305 307 308 309 313 321 325 329 335 337 338 337 336 339 338 337 337 337 336
306 305 304 304 305 306 306 304 303 305 303 300 300 302 302 301 299 297 296 296 296 296 297 301 301 303 305 307 309 314 322 327 334 341 339 338 337 336 337 335 336 336 337 338
303 304 304 303 304 306 307 305 305 304 302 301 301 301 299 300 300 299 296 296 297 296 299 304 306 308 306 307 312 316 324 332 339 342 341 342 337 335 337 337 337 338 338 339
298 299 300 301 301 302 304 303 303 302 302 302 301 301 300 300 300 299 296 295 296 295 297 300 306 310 306 304 306 310 324 329 336 341 343 342 340 336 337 338 336 338 339 340
295 295 297 300 302 303 301 298 298 299 299 299 299 301 302 302 300 297 294 290 289 290 291 292 296 301 297 294 301 315 330 334 341 345 345 344 345 345 343 339 339 340 340 341
292 294 296 298 300 301 299 297 297 296 294 292 293 296 298 297 296 297 296 291 285 282 280 282 288 295 291 284 286 321 343 345 345 345 348 347 346 346 343 343 344 344 343 343
291 293 293 294 297 297 294 294 295 295 291 289 287 290 292 290 288 289 291 289 284 275 275 274 275 275 261 255 261 308 335 341 343 345 344 345 345 343 344 346 347 346 345 345
292 292 291 290 291 291 290 289 290 291 290 287 284 285 284 281 278 278 275 271 272 263 254 256 262 256 244 238 270 318 335 343 342 341 344 346 348 348 349 349 350 350 349 348
288 289 289 288 287 286 285 284 286 286 286 284 281 280 276 272 268 269 270 263 259 252 250 254 255 254 251 257 277 305 323 330 333 337 343 348 349 348 349 349 350 351 352 352
285 284 283 283 283 282 280 280 281 281 280 278 276 274 271 264 261 262 262 257 253 249 250 253 252 248 254 265 279 296 312 323 328 333 339 345 346 346 347 349 350 351 351 351
284 282 280 279 280 279 277 277 278 277 275 272 270 267 263 259 258 257 254 249 244 244 248 249 248 249 257 267 280 294 307 319 326 330 334 340 344 345 346 349 351 351 350 351
280 280 278 276 275 274 273 272 272 272 271 268 264 261 256 254 253 251 249 243 240 241 244 247 249 253 260 270 281 291 303 315 320 326 333 337 341 343 347 349 350 350 350 350
277 277 276 274 272 271 270 268 267 267 266 263 260 257 253 249 246 245 244 242 241 243 246 247 249 254 261 268 274 282 294 307 316 326 332 336 339 343 346 348 348 348 348 349
274 273 272 271 269 268 267 266 264 262 261 259 255 250 247 244 243 242 242 241 240 242 244 244 246 250 255 261 269 274 289 305 316 324 329 333 336 340 344 346 346 347 348 349
270 269 269 269 267 265 264 263 260 259 258 253 248 245 241 239 239 238 239 239 238 237 238 239 242 246 250 255 262 276 290 301 309 318 324 328 332 337 342 345 346 347 349 351
Height
5828 5825 5823 5820 5819 5816 5814 5812 5809 5807 5805 5803 5801 5798 5796 5794 5791 5789 5786 5784 5782 5780 5777 5775 5773 5770 5768 5765 5762 5759 5756 5753 5750 5747 5744 5741 5738 5735 5732 5730 5728 5726 5723 5721
5824 5821 5819 5817 5815 5813 5811 5808 5806 5803 5801 5799 5796 5794 5791 5789 5786 5784 5781 5779 5776 5774 5772 5770 5767 5765 5762 5759 5756 5753 5750 5748 5745 5742 5739 5736 5733 5731 5728 5726 5724 5721 5719 5716
5820 5817 5815 5813 5811 5809 5806 5804 5801 5798 5797 5794 5792 5789 5786 5784 5781 5778 5776 5773 5771 5769 5766 5764 5761 5759 5756 5752 5749 5747 5744 5742 5740 5737 5734 5731 5729 5726 5724 5721 5719 5717 5714 5712
5815 5813 5811 5810 5806 5803 5801 5798 5796 5794 5791 5789 5787 5784 5781 5778 5775 5773 5770 5767 5765 5763 5760 5758 5756 5753 5750 5747 5744 5741 5739 5737 5734 5732 5729 5726 5724 5721 5719 5717 5715 5713 5711 5709
5810 5807 5805 5804 5800 5798 5795 5793 5791 5788 5786 5784 5781 5778 5776 5772 5770 5767 5765 5762 5759 5757 5754 5752 5750 5747 5745 5741 5739 5736 5734 5732 5729 5726 5724 5721 5719 5717 5715 5712 5710 5709 5707 5705
5805 5802 5800 5799 5795 5792 5790 5787 5785 5782 5780 5778 5775 5773 5771 5768 5765 5762 5759 5757 5754 5752 5749 5747 5745 5742 5739 5736 5734 5732 5729 5727 5724 5722 5719 5717 5715 5713 5711 5708 5706 5705 5703 5701
5800 5796 5793 5791 5789 5787 5786 5783 5780 5777 5774 5772 5769 5767 5765 5762 5759 5756 5754 5751 5749 5746 5744 5742 5739 5737 5734 5732 5730 5727 5725 5723 5720 5718 5715 5713 5711 5709 5707 5705 5703 5701 5699 5697
5794 5791 5790 5785 5783 5781 5779 5776 5773 5771 5769 5766 5764 5761 5758 5755 5752 5750 5748 5746 5744 5741 5739 5736 5734 5732 5730 5728 5725 5723 5721 5719 5716 5714 5711 5709 5707 5705 5703 5701 5699 5697 5696 5694
5789 5788 5783 5780 5777 5774 5772 5770 5767 5765 5763 5760 5757 5755 5752 5749 5747 5744 5742 5740 5738 5736 5734 5731 5729 5727 5725 5723 5721 5719 5717 5715 5712 5710 5708 5705 5704 5702 5700 5698 5696 5694 5693 5691
5783 5780 5777 5774 5771 5769 5766 5764 5762 5759 5757 5754 5751 5749 5746 5743 5741 5739 5737 5735 5733 5731 5729 5727 5725 5723 5721 5719 5717 5715 5713 5711 5709 5707 5705 5703 5701 5699 5698 5696 5694 5692 5690 5688
5778 5775 5772 5769 5766 5764 5761 5758 5756 5754 5751 5748 5746 5743 5740 5738 5736 5734 5732 5731 5729 5727 5725 5723 5721 5719 5717 5715 5713 5712 5710 5708 5706 5704 5702 5700 5699 5697 5696 5694 5692 5690 5688 5686
5772 5769 5766 5764 5761 5758 5756 5753 5751 5748 5746 5743 5741 5738 5735 5733 5730 5729 5727 5726 5724 5722 5721 5719 5717 5715 5714 5712 5710 5709 5707 5706 5704 5703 5700 5699 5698 5696 5694 5692 5690 5688 5686 5683
5765 5762 5760 5758 5755 5753 5750 5747 5745 5743 5741 5738 5736 5733 5731 5728 5726 5724 5723 5721 5720 5718 5717 5715 5714 5712 5711 5709 5708 5707 5705 5704 5702 5701 5699 5698 5696 5695 5693 5691 5689 5687 5684 5681
5759 5757 5754 5752 5750 5747 5744 5742 5740 5738 5736 5733 5731 5729 5726 5724 5722 5720 5719 5717 5716 5714 5713 5712 5711 5710 5708 5707 5705 5704 5703 5702 5701 5699 5698 5696 5695 5693 5691 5689 5687 5685 5682 5679
5753 5751 5749 5747 5745 5742 5739 5737 5735 5733 5731 5729 5726 5724 5722 5720 5718 5716 5715 5713 5712 5711 5710 5709 5708 5707 5705 5704 5703 5702 5702 5701 5699 5698 5697 5695 5694 5692 5690 5688 5685 5682 5679 5677
5748 5746 5743 5741 5739 5737 5734 5732 5730 5728 5726 5724 5722 5720 5718 5716 5714 5713 5711 5710 5708 5708 5707 5706 5705 5704 5703 5702 5701 5701 5700 5699 5698 5697 5696 5694 5693 5690 5688 5686 5683 5680 5678 5675
5741 5739 5737 5736 5734 5731 5729 5727 5725 5723 5722 5720 5718 5716 5714 5712 5711 5709 5708 5706 5706 5705 5704 5703 5703 5702 5701 5701 5700 5700 5699 5699 5698 5697 5695 5693 5691 5689 5686 5684 5681 5678 5675 5672
5734 5733 5731 5729 5728 5726 5724 5722 5720 5718 5717 5715 5714 5712 5710 5709 5707 5706 5705 5703 5703 5702 5702 5701 5701 5700 5700 5700 5699 5699 5699 5698 5697 5696 5694 5692 5690 5688 5685 5682 5679 5677 5674 5670
5728 5726 5725 5723 5722 5720 5718 5717 5715 5713 5712 5711 5710 5708 5707 5705 5704 5703 5702 5701 5700 5700 5700 5700 5699 5699 5699 5699 5699 5699 5698 5697 5696 5695 5693 5691 5689 5686 5684 5681 5678 5675 5672 5669
5721 5719 5718 5717 5716 5714 5713 5712 5710 5709 5707 5706 5705 5704 5703 5702 5701 5700 5700 5699 5698 5698 5698 5698 5698 5698 5698 5698 5698 5698 5697 5696 5695 5694 5692 5689 5687 5685 5682 5679 5677 5674 5670 5667
5714 5713 5711 5710 5709 5708 5707 5706 5705 5704 5703 5702 5701 5700 5699 5699 5698 5698 5697 5697 5697 5696 5697 5696 5696 5696 5697 5697 5697 5696 5696 5695 5694 5692 5690 5688 5686 5683 5681 5678 5675 5672 5669 5665
5706 5705 5704 5703 5702 5702 5701 5700 5700 5699 5698 5697 5697 5696 5696 5695 5695 5695 5695 5695 5695 5695 5695 5694 5695 5695 5695 5695 5695 5695 5694 5693 5692 5690 5688 5686 5684 5682 5679 5677 5674 5671 5667 5664
5698 5698 5697 5696 5696 5695 5695 5694 5694 5693 5693 5692 5692 5692 5692 5692 5691 5692 5692 5692 5692 5692 5692 5693 5693 5693 5693 5694 5694 5693 5692 5691 5690 5688 5687 5685 5682 5680 5678 5675 5672 5669 5666 5662
5691 5690 5690 5689 5689 5689 5688 5688 5688 5687 5687 5687 5687 5687 5687 5687 5688 5688 5688 5689 5689 5690 5690 5690 5691 5691 5691 5691 5691 5691 5690 5689 5688 5686 5685 5683 5681 5678 5676 5674 5671 5668 5664 5661
5683 5683 5682 5682 5682 5682 5682 5682 5682 5681 5681 5681 5681 5682 5682 5683 5684 5684 5685 5685 5686 5687 5687 5688 5688 5688 5689 5689 5689 5688 5688 5687 5686 5684 5683 5681 5679 5677 5675 5672 5670 5667 5663 5660
5675 5675 5675 5675 5675 5675 5675 5675 5675 5675 5675 5676 5676 5677 5678 5679 5679 5680 5681 5682 5682 5683 5684 5684 5685 5685 5686 5686 5686 5686 5686 5685 5684 5682 5681 5679 5677 5676 5673 5671 5668 5665 5662 5658
5667 5667 5668 5668 5668 5668 5668 5668 5668 5669 5669 5670 5671 5672 5673 5674 5675 5676 5677 5678 5678 5679 5680 5681 5682 5682 5683 5684 5684 5683 5683 5682 5681 5680 5679 5677 5676 5674 5672 5670 5667 5664 5660 5657